This demonstration page uses our WeatherBlox Daily Observations layout. Learn more.

Left ArrowRight Arrow

Hourly Observations for February 18, 2018

Temp ( °F °C ) Dew Point ( °F °C ) Humidity (%) Winds ( mph kmh ) Pressure ( in mb ) Visibility ( mi km ) Precip ( " mm )
12:53 am 00:53 Clear 33 0.6 20 -6.7 58 58 SSE 10 17 29.99 1016 10 16 0.00 0.00
1:53 am 01:53 Clear 34 1.1 18 -7.8 52 52 S 12 19 29.93 1014 10 16 0.00 0.00
2:53 am 02:53 Clear 35 1.7 17 -8.3 48 48 S 15 24 29.89 1012 10 16 0.00 0.00
3:53 am 03:53 Clear 36 2.2 16 -8.9 44 44 S 16 26 29.85 1011 10 16 0.00 0.00
4:53 am 04:53 Clear 40 4.4 19 -7.2 43 43 S 14 22 29.82 1010 10 16 0.00 0.00
5:53 am 05:53 Clear 41 5 21 -6.1 45 45 S 17 28 29.78 1008 10 16 0.00 0.00
6:53 am 06:53 Clear 41 5 22 -5.6 47 47 S 17 28 29.76 1008 10 16 0.00 0.00
7:53 am 07:53 Sunny 42 5.6 21 -6.1 43 43 S 16 26 29.75 1008 10 16 0.00 0.00
8:53 am 08:53 Sunny 42 5.6 21 -6.1 43 43 S 15 24 29.75 1007 10 16 0.00 0.00
9:53 am 09:53 Sunny 45 7.2 22 -5.6 40 40 S 18 30 29.70 1006 10 16 0.00 0.00
10:53 am 10:53 Sunny 47 8.3 25 -3.9 42 42 S 18 30 29.67 1005 10 16 0.00 0.00
11:53 am 11:53 Sunny 50 10 27 -2.8 41 41 S 23 37 29.63 1003 10 16 0.00 0.00
12:53 pm 12:53 Sunny 53 11.7 28 -2.2 38 38 SSW 25 41 29.57 1002 10 16 0.00 0.00
1:53 pm 13:53 Sunny 56 13.3 30 -1.1 37 37 SSW 15 24 29.53 1000 10 16 0.00 0.00
2:53 pm 14:53 Sunny 58 14.4 31 -0.6 36 36 SSW 16 26 29.50 999 10 16 0.00 0.00
3:53 pm 15:53 Sunny 61 16.1 32 0 34 34 SSW 14 22 29.48 998 10 16 0.00 0.00
4:53 pm 16:53 Sunny 63 17.2 33 0.6 33 33 SW 7 11 29.48 998 10 16 0.00 0.00
5:53 pm 17:53 Sunny 56 13.3 34 1.1 44 44 Calm 29.50 999 10 16 0.00 0.00
6:53 pm 18:53 Clear 45 7.2 34 1.1 66 66 NNE 10 17 29.55 1001 10 16 0.00 0.00
7:53 pm 19:53 Clear 41 5 31 -0.6 67 67 NNE 18 30 29.60 1003 10 16 0.00 0.00
8:53 pm 20:53 Clear 35 1.7 28 -2.2 76 76 NNE 21 33 29.61 1003 10 16 0.00 0.00
9:53 pm 21:53 Cloudy 32 0 26 -3.3 79 79 NNE 22 35 29.64 1004 10 16 0.00 0.00
10:10 pm 22:10 Cloudy 30 -1 27 -3 86 86 NNE 23 37 29.71 1006 10 16 0.00 0.00
10:17 pm 22:17 Cloudy 31 -0.6 26 -3.3 82 82 NNE 21 33 29.71 1006 10 16 0.00 0.00
10:53 pm 22:53 Cloudy 30 -1.1 25 -3.9 82 82 NNE 22 35 29.65 1004 10 16 0.00 0.00
11:20 pm 23:20 Cloudy 29 -1.7 24 -4.4 82 82 NNE 23 37 29.74 1007 10 16 0.00 0.00
11:53 pm 23:53 Cloudy 28 -2.2 24 -4.4 85 85 NNE 23 37 29.64 1004 10 16 0.00 0.00

Powered by AerisWeather